Wind_Speed
3 3 3 2 2 1 0 1 1 1 1 1 1 2 2 2 2 3 2 2 2 2 2 2 3 3 3 3 3 3 3 3 3 3 3 4 4 5 5 6 7 7 7 7 8 9 8 8 8
3 4 4 3 3 1 1 2 2 2 2 2 2 3 3 3 3 3 3 3 3 3 3 3 3 4 4 4 4 5 5 5 4 4 4 5 5 5 6 6 7 8 9 9 9 10 10 9 9
4 4 4 4 4 3 3 3 3 3 4 4 4 4 4 5 4 5 5 5 4 3 3 4 4 5 5 5 4 5 5 5 5 5 6 6 6 7 7 7 7 9 10 10 10 11 11 11 10
6 6 5 5 5 5 5 5 5 6 6 6 6 6 6 6 6 6 6 6 5 4 4 5 5 6 5 6 5 6 6 6 7 7 7 8 8 8 8 8 8 9 9 10 10 10 10 11 11
7 7 6 6 6 6 7 7 8 8 8 7 7 7 7 7 7 7 7 7 7 6 6 6 6 6 7 7 7 7 7 7 7 8 8 9 9 8 8 9 9 10 10 10 10 11 11 11 11
7 7 7 8 8 8 8 9 8 8 8 9 8 8 7 7 8 8 8 7 8 7 7 7 7 7 7 7 8 9 9 9 9 9 9 9 9 9 10 11 11 11 11 11 11 11 10 11 11
7 7 8 9 9 9 9 9 9 9 9 9 9 8 8 8 9 9 9 8 8 8 8 8 9 9 9 9 10 9 10 9 9 9 10 10 10 10 11 11 11 11 12 11 11 11 11 12 12
8 8 9 9 10 9 10 10 10 10 10 10 9 9 9 9 10 10 9 9 9 9 9 8 9 9 10 10 10 10 10 10 10 11 11 11 11 11 11 11 11 10 11 11 12 13 13 14 14
9 9 9 10 10 10 11 11 11 11 10 10 10 9 10 10 10 10 10 10 10 10 10 10 9 9 9 10 11 11 11 12 12 12 12 13 12 12 12 11 11 10 11 11 12 13 14 14 14
8 9 9 10 10 11 12 11 12 12 12 11 11 11 11 11 10 10 10 10 10 10 10 10 10 11 11 11 12 12 12 13 13 14 14 14 13 13 13 12 12 12 12 12 12 13 14 14 14
9 9 10 10 11 10 11 11 12 12 12 12 12 11 11 11 10 10 11 11 11 11 11 11 12 12 12 13 13 14 14 14 14 14 15 15 15 14 14 14 13 13 13 14 13 13 13 14 14
9 10 10 10 10 11 11 12 12 13 12 12 12 12 11 11 11 11 11 12 12 12 12 13 13 13 14 14 14 15 15 15 15 15 15 16 15 15 15 15 14 14 14 14 14 14 14 15 15
9 10 10 10 10 11 12 13 12 12 12 12 11 11 11 11 11 12 13 13 12 12 13 13 14 15 15 15 15 15 15 15 15 16 16 16 16 16 16 16 15 15 14 14 14 14 14 15 15
10 10 10 10 11 11 12 13 12 12 12 12 13 13 13 12 12 12 12 13 13 14 14 14 15 15 15 15 16 16 16 16 16 16 17 17 17 17 17 17 17 16 15 15 15 15 15 15 15
9 10 10 11 11 11 12 13 12 12 13 13 13 14 13 13 13 13 13 14 14 15 15 15 15 16 16 16 16 16 16 17 16 16 17 17 17 17 17 17 18 17 17 16 15 15 16 16 16
9 11 11 11 12 12 12 12 13 14 14 14 15 15 14 14 14 14 15 15 15 15 15 16 16 16 16 16 17 17 17 17 17 16 17 17 17 17 17 17 18 18 17 16 16 16 16 15 15
11 12 13 13 13 13 14 14 14 15 15 15 15 15 15 16 16 15 16 16 16 16 16 16 16 16 17 17 17 17 17 17 17 17 17 17 17 18 17 17 17 18 17 17 17 16 16 16 15
12 13 13 14 14 15 15 15 14 14 16 16 16 16 16 16 16 17 17 17 17 18 18 18 17 17 17 18 18 17 17 17 17 18 18 18 18 18 18 17 17 18 18 17 17 16 16 16 16
13 14 15 15 16 16 16 16 15 16 16 17 17 17 17 17 17 17 18 19 19 19 20 20 19 19 18 19 19 18 18 19 19 19 19 19 19 19 19 19 18 17 17 17 17 17 17 17 17
14 14 15 16 17 17 17 17 17 17 17 18 18 18 18 18 19 19 20 20 20 21 21 21 21 20 20 20 20 20 20 20 20 20 20 20 20 20 19 19 19 18 17 17 18 17 17 18 18
15 15 16 16 17 17 18 18 18 19 18 19 19 19 19 20 20 20 21 21 21 21 21 21 21 21 21 21 21 21 21 21 21 21 21 20 20 21 20 20 20 19 18 18 18 18 18 18 18
15 15 15 16 17 16 17 19 19 19 19 20 20 21 21 21 21 21 21 21 22 22 21 22 22 22 22 22 22 22 22 21 21 21 21 21 21 21 21 21 20 20 19 19 19 19 19 19 19
15 15 15 16 16 16 17 20 21 20 20 20 21 22 22 22 23 23 22 23 23 22 22 22 22 23 23 23 23 23 23 23 22 22 22 22 22 21 21 21 21 20 20 20 20 20 19 20 19
15 15 15 15 16 17 17 19 21 21 21 21 22 22 22 23 23 23 24 24 24 23 23 23 24 24 24 24 24 24 24 23 23 23 23 22 22 22 22 21 21 21 21 21 21 21 20 20 20
15 15 15 16 17 18 18 20 21 21 21 22 22 22 22 22 23 23 24 25 25 25 25 25 25 25 25 25 25 25 24 24 24 24 24 24 23 23 22 22 22 22 22 22 22 21 21 21 20
15 15 16 16 16 18 18 20 21 22 23 23 23 23 22 22 22 23 25 25 25 25 26 26 26 25 25 26 26 26 26 25 25 24 24 24 24 24 23 23 22 22 22 22 22 21 21 21 21
16 15 16 17 17 18 19 20 21 22 24 25 24 24 23 23 24 24 25 25 24 26 26 26 26 26 26 27 28 27 27 27 26 25 26 25 25 24 24 23 23 23 22 22 22 21 20 20 21
17 16 17 18 19 19 19 21 21 21 23 23 24 24 24 25 24 24 25 25 25 26 26 26 27 28 28 28 28 29 28 27 27 26 26 26 26 26 25 24 24 24 23 22 22 22 22 21 21
18 18 18 19 20 20 21 22 20 21 22 23 23 23 23 23 24 24 24 25 25 24 25 26 27 28 28 28 28 29 28 28 27 26 26 26 26 25 26 26 25 25 25 23 22 22 22 22 21
19 18 18 20 21 22 24 24 22 21 20 23 23 23 23 24 24 24 23 24 23 24 25 26 26 27 27 28 28 28 28 28 28 27 27 26 26 26 27 27 27 27 26 25 24 23 23 22 22
Wind_Direction
181 184 186 188 188 214 22 31 336 334 268 252 249 262 284 293 300 301 296 312 315 302 260 238 239 248 264 272 277 290 301 307 305 303 305 300 295 287 279 275 269 266 264 263 262 260 261 264 263
203 208 212 222 223 236 265 285 286 318 298 278 274 275 283 288 296 286 284 297 305 302 262 250 254 256 264 269 273 277 292 299 304 303 302 301 299 294 292 284 275 268 264 265 263 262 261 266 269
217 223 224 237 245 253 257 261 268 285 291 288 284 278 277 281 288 284 280 283 289 287 278 259 261 267 275 277 281 281 287 290 294 298 296 295 293 292 292 291 282 272 266 266 267 270 266 266 268
222 230 234 244 249 259 264 261 269 273 280 283 286 279 273 278 282 282 277 275 279 279 278 271 270 271 275 277 278 288 291 291 292 294 294 295 294 294 295 292 286 280 274 273 274 276 271 267 267
228 232 236 246 254 259 265 272 275 273 272 278 282 281 275 279 281 281 279 273 270 267 271 273 276 280 275 281 281 286 295 293 294 296 299 297 296 295 295 293 286 281 276 272 270 271 270 270 270
235 239 243 247 254 259 266 271 273 274 273 273 278 277 276 280 280 283 281 278 270 266 270 278 284 284 280 280 282 288 292 297 298 300 301 298 295 296 294 292 288 285 278 274 271 270 273 276 276
243 243 249 253 256 261 265 269 273 276 277 274 278 280 277 276 277 278 278 275 273 273 275 277 279 282 283 284 285 291 293 294 296 299 299 298 297 296 294 295 294 293 285 274 271 271 273 275 277
244 250 251 256 259 262 265 269 275 280 280 279 279 282 282 279 277 275 275 273 273 275 277 281 280 282 285 287 292 295 296 294 294 295 296 296 295 294 293 294 293 290 288 279 277 279 277 277 278
244 249 255 259 262 264 266 268 273 276 277 276 275 277 280 278 275 274 274 276 276 275 278 280 285 284 286 290 292 292 292 291 291 292 292 295 296 292 291 293 289 286 281 279 278 278 278 278 279
245 248 254 263 265 265 265 269 275 275 273 272 274 275 275 277 275 275 276 278 279 280 282 284 286 288 289 289 289 289 290 289 289 290 291 293 293 291 291 290 287 284 282 281 279 277 279 281 281
247 255 263 266 267 268 268 270 275 276 276 276 275 277 275 276 276 277 280 280 281 281 283 286 287 289 290 289 289 288 287 288 288 289 290 291 292 292 291 289 287 286 285 282 280 279 279 280 282
251 255 262 267 272 271 273 277 278 279 282 282 281 278 277 276 275 278 281 281 281 283 285 288 291 292 291 291 289 288 287 288 290 289 289 291 291 291 289 288 287 286 284 281 280 279 279 282 283
260 265 269 271 275 276 275 277 279 281 281 284 286 282 278 277 276 277 279 279 280 282 285 288 290 291 292 293 292 291 290 290 291 289 288 289 289 288 287 287 286 282 279 280 280 279 280 286 285
263 268 270 272 276 277 276 275 275 277 278 279 280 280 279 278 279 279 281 282 283 283 284 287 290 292 294 293 292 292 292 291 291 289 289 289 289 288 287 285 283 281 280 282 282 282 286 285 284
265 269 273 275 276 276 277 274 275 278 277 276 277 278 278 279 279 281 283 285 287 287 287 288 290 291 293 294 292 291 290 291 290 290 290 291 292 291 289 288 285 283 284 284 283 283 285 283 281
266 271 275 275 276 278 278 278 278 279 279 278 278 279 280 278 278 281 283 284 285 287 289 289 290 290 291 292 291 289 290 291 290 289 290 290 291 290 290 290 289 289 287 284 283 281 283 283 280
270 276 279 279 278 279 279 281 280 280 279 278 278 278 278 277 279 280 281 284 285 286 287 287 288 289 291 291 291 290 290 289 288 288 289 290 291 290 289 288 290 291 288 285 284 282 283 284 281
271 275 277 281 280 281 282 284 281 279 280 281 280 278 277 276 278 279 281 284 285 286 286 287 287 289 290 289 289 289 288 289 289 289 289 290 291 289 288 287 288 290 289 286 285 285 285 284 282
267 272 276 277 278 282 285 284 283 281 280 280 281 280 279 279 281 281 282 283 284 285 285 286 287 288 287 288 288 288 288 289 289 288 288 289 289 289 288 287 288 288 288 287 286 284 284 282 281
270 271 275 276 280 283 284 283 281 280 282 281 281 280 280 281 281 280 281 282 283 284 286 286 286 286 286 287 287 287 286 287 287 287 286 287 288 289 289 289 287 287 287 288 288 287 284 282 280
271 271 274 278 282 284 284 283 282 281 283 282 281 281 280 280 280 280 280 281 281 283 284 285 285 285 286 286 287 287 286 286 286 286 286 287 287 287 287 286 286 287 286 287 288 288 288 286 283
269 273 277 280 282 285 287 287 286 285 285 285 283 281 281 281 281 281 281 281 281 281 281 282 283 284 284 284 286 287 287 286 286 286 286 287 287 288 286 285 285 286 286 286 286 287 288 287 286
273 276 278 281 284 284 285 285 289 290 289 288 286 283 282 280 280 281 281 281 282 280 279 280 281 283 283 283 284 285 284 284 285 285 285 285 286 286 285 284 284 285 285 285 285 285 286 286 285
275 276 282 286 287 284 283 282 286 290 290 289 288 286 284 282 281 280 281 282 281 280 280 281 282 282 282 282 282 282 282 282 283 283 283 282 283 284 283 284 284 284 284 285 285 284 284 284 282
278 282 285 287 286 286 288 285 285 288 289 288 287 287 287 284 280 278 280 280 281 282 281 281 281 281 281 281 281 282 280 280 281 281 281 281 281 280 281 281 282 282 283 284 285 283 282 281 280
281 283 285 284 284 283 283 283 286 288 288 288 287 285 285 284 281 279 279 280 280 281 281 280 280 280 280 280 279 280 279 278 279 280 280 280 280 279 278 278 279 280 281 283 283 282 281 279 278
280 279 281 280 279 277 280 282 282 287 288 288 288 286 284 284 282 282 282 283 281 281 281 280 280 279 279 278 278 278 278 277 276 278 279 278 278 278 276 276 277 278 280 282 281 279 279 278 277
278 277 277 279 280 278 279 281 284 286 287 288 286 284 283 283 283 283 282 283 284 284 284 283 282 281 279 278 278 278 278 278 277 279 278 277 276 276 275 275 277 277 277 279 279 278 277 276 277
279 278 279 280 280 280 278 279 284 285 287 288 288 286 285 286 286 286 286 284 284 285 286 285 284 284 281 279 279 278 277 276 276 276 277 277 277 277 275 274 276 278 278 276 276 275 275 275 276
277 277 279 280 280 277 278 280 283 286 286 286 289 287 287 287 286 288 288 287 287 287 287 287 286 285 284 282 280 278 276 274 274 274 275 277 277 277 276 275 275 277 277 276 275 273 274 275 276
Height
5867 5868 5869 5870 5871 5871 5870 5871 5871 5871 5872 5872 5872 5873 5873 5873 5874 5876 5874 5872 5872 5871 5870 5872 5873 5873 5873 5873 5873 5873 5872 5872 5871 5871 5871 5870 5870 5870 5869 5869 5869 5869 5869 5870 5870 5870 5870 5870 5871
5867 5868 5869 5870 5870 5870 5871 5871 5871 5872 5872 5872 5872 5873 5873 5873 5873 5873 5872 5872 5871 5870 5870 5871 5872 5872 5873 5873 5873 5872 5872 5871 5871 5870 5870 5870 5869 5869 5868 5867 5867 5868 5868 5868 5868 5869 5869 5869 5869
5867 5868 5870 5870 5869 5870 5870 5871 5871 5872 5872 5872 5873 5873 5873 5873 5873 5873 5872 5872 5872 5871 5871 5871 5872 5872 5872 5872 5872 5872 5871 5871 5870 5870 5869 5869 5868 5868 5867 5866 5866 5866 5866 5867 5867 5867 5867 5867 5867
5867 5868 5869 5869 5869 5869 5869 5870 5871 5871 5872 5872 5872 5872 5871 5872 5872 5872 5872 5872 5872 5871 5871 5871 5871 5871 5871 5871 5871 5871 5870 5870 5869 5869 5868 5868 5867 5867 5866 5865 5865 5864 5864 5865 5865 5865 5865 5865 5865
5866 5867 5868 5868 5868 5869 5869 5869 5870 5871 5871 5871 5872 5871 5871 5871 5871 5871 5871 5871 5871 5871 5870 5870 5870 5870 5870 5870 5870 5870 5869 5869 5868 5868 5867 5867 5866 5866 5865 5864 5863 5863 5862 5863 5863 5863 5863 5863 5863
5865 5866 5867 5867 5868 5868 5868 5868 5869 5869 5870 5870 5870 5870 5870 5870 5870 5870 5870 5870 5870 5870 5870 5869 5870 5869 5869 5869 5869 5868 5868 5867 5867 5867 5866 5865 5865 5864 5864 5862 5861 5860 5859 5860 5860 5861 5861 5861 5861
5865 5866 5866 5866 5867 5867 5868 5868 5868 5868 5869 5869 5869 5870 5869 5869 5869 5869 5869 5869 5869 5869 5869 5868 5868 5868 5868 5868 5868 5867 5866 5866 5866 5865 5865 5864 5863 5863 5862 5860 5859 5856 5854 5856 5857 5859 5859 5859 5859
5863 5865 5864 5865 5865 5866 5866 5867 5867 5867 5867 5868 5868 5868 5868 5868 5868 5868 5867 5867 5867 5867 5867 5868 5867 5867 5867 5866 5866 5865 5865 5865 5864 5864 5863 5862 5862 5861 5860 5859 5857 5854 5853 5853 5855 5856 5857 5857 5857
5862 5864 5863 5863 5864 5864 5864 5865 5866 5866 5866 5866 5866 5867 5867 5866 5866 5866 5866 5866 5866 5866 5866 5866 5866 5866 5865 5865 5865 5864 5863 5863 5862 5862 5861 5861 5860 5859 5859 5857 5856 5854 5853 5853 5853 5854 5854 5854 5854
5861 5861 5861 5862 5862 5863 5863 5863 5864 5864 5864 5865 5865 5865 5865 5864 5864 5864 5864 5864 5864 5864 5864 5864 5864 5864 5864 5863 5863 5862 5862 5861 5860 5860 5859 5858 5858 5858 5857 5856 5855 5854 5852 5852 5852 5852 5852 5852 5852
5859 5860 5860 5860 5861 5861 5861 5862 5862 5862 5863 5863 5863 5863 5863 5863 5863 5863 5863 5863 5863 5863 5862 5862 5862 5862 5861 5861 5860 5860 5860 5859 5858 5858 5857 5856 5856 5855 5854 5853 5853 5852 5851 5851 5850 5850 5850 5850 5850
5858 5858 5859 5859 5859 5860 5860 5860 5860 5860 5861 5861 5860 5860 5861 5861 5861 5861 5861 5861 5861 5861 5860 5860 5860 5859 5859 5858 5858 5857 5857 5856 5856 5855 5854 5854 5853 5853 5852 5851 5850 5850 5849 5848 5848 5848 5848 5847 5847
5856 5857 5857 5857 5858 5858 5858 5858 5859 5859 5859 5858 5858 5858 5858 5858 5858 5859 5858 5859 5858 5858 5858 5858 5857 5857 5856 5856 5855 5855 5854 5853 5853 5852 5852 5851 5850 5850 5849 5848 5848 5847 5846 5845 5845 5845 5845 5844 5844
5855 5855 5855 5856 5856 5856 5856 5856 5857 5857 5856 5856 5856 5856 5856 5856 5856 5856 5856 5856 5856 5856 5856 5855 5855 5854 5853 5853 5852 5852 5851 5851 5850 5849 5849 5848 5847 5847 5846 5845 5844 5844 5843 5843 5842 5842 5842 5841 5841
5853 5853 5854 5854 5854 5854 5854 5854 5854 5854 5854 5854 5853 5854 5853 5853 5854 5854 5854 5853 5853 5853 5853 5852 5852 5851 5851 5850 5850 5849 5848 5848 5847 5846 5846 5845 5844 5843 5843 5842 5841 5840 5840 5840 5839 5839 5839 5838 5838
5851 5851 5852 5852 5851 5852 5853 5852 5852 5851 5851 5851 5851 5851 5851 5851 5851 5851 5850 5850 5850 5850 5850 5849 5849 5848 5847 5847 5846 5846 5845 5844 5844 5843 5842 5842 5841 5840 5840 5839 5838 5837 5837 5836 5836 5836 5835 5835 5834
5849 5849 5849 5849 5849 5849 5849 5849 5849 5848 5848 5848 5848 5848 5848 5848 5848 5848 5847 5847 5847 5847 5846 5846 5846 5845 5844 5843 5843 5842 5841 5841 5840 5840 5839 5838 5838 5837 5836 5836 5835 5834 5834 5833 5833 5832 5832 5831 5831
5847 5846 5846 5846 5846 5846 5846 5846 5845 5845 5844 5844 5845 5845 5845 5845 5844 5844 5844 5844 5844 5843 5843 5842 5842 5842 5841 5840 5839 5839 5838 5837 5837 5836 5836 5835 5834 5833 5833 5832 5832 5831 5830 5830 5829 5829 5828 5828 5827
5844 5844 5844 5844 5843 5843 5842 5842 5842 5841 5841 5841 5841 5841 5841 5841 5841 5841 5840 5840 5840 5840 5839 5839 5838 5838 5837 5836 5836 5835 5835 5834 5833 5833 5832 5831 5830 5829 5829 5828 5828 5827 5827 5826 5825 5825 5824 5824 5824
5841 5841 5840 5840 5840 5839 5839 5839 5838 5838 5838 5838 5837 5837 5837 5837 5837 5837 5836 5836 5836 5836 5835 5835 5834 5834 5833 5832 5831 5831 5830 5830 5829 5828 5827 5827 5826 5825 5825 5824 5823 5823 5822 5822 5821 5821 5820 5820 5820
5837 5837 5837 5836 5836 5835 5835 5835 5834 5834 5834 5834 5833 5833 5833 5833 5833 5832 5832 5832 5832 5831 5831 5830 5830 5829 5828 5828 5827 5826 5825 5825 5824 5823 5823 5822 5822 5821 5820 5819 5819 5818 5818 5818 5817 5817 5816 5816 5815
5833 5833 5833 5833 5832 5832 5832 5830 5830 5830 5829 5829 5829 5828 5828 5828 5828 5828 5828 5828 5827 5826 5826 5825 5825 5824 5824 5823 5822 5821 5820 5820 5819 5819 5818 5817 5817 5816 5815 5815 5814 5814 5814 5813 5813 5812 5812 5811 5811
5830 5830 5829 5829 5828 5828 5828 5827 5826 5825 5824 5824 5824 5823 5823 5823 5823 5823 5823 5822 5821 5821 5821 5820 5820 5819 5818 5817 5817 5816 5815 5815 5814 5813 5813 5812 5811 5811 5810 5810 5809 5809 5809 5809 5808 5808 5807 5806 5806
5826 5826 5825 5825 5824 5824 5824 5823 5821 5821 5820 5819 5818 5818 5818 5818 5817 5817 5817 5817 5815 5815 5815 5815 5814 5813 5812 5812 5811 5810 5809 5809 5808 5808 5807 5807 5806 5806 5805 5805 5804 5804 5804 5803 5803 5802 5802 5801 5801
5823 5823 5822 5821 5820 5821 5820 5819 5818 5817 5816 5815 5814 5813 5813 5812 5812 5812 5811 5811 5810 5809 5809 5809 5808 5807 5806 5805 5805 5804 5803 5803 5802 5802 5801 5801 5800 5800 5800 5799 5799 5799 5798 5798 5797 5797 5796 5796 5796
5819 5819 5819 5818 5817 5817 5816 5814 5814 5812 5811 5810 5809 5808 5807 5807 5806 5806 5805 5805 5804 5803 5802 5802 5801 5800 5800 5799 5798 5797 5797 5796 5796 5795 5795 5795 5794 5794 5794 5793 5793 5793 5793 5792 5791 5791 5791 5790 5790
5815 5814 5814 5813 5812 5811 5811 5810 5808 5807 5805 5804 5803 5802 5801 5800 5799 5799 5798 5797 5796 5796 5795 5794 5794 5793 5792 5792 5791 5790 5789 5789 5789 5789 5788 5788 5788 5787 5787 5787 5787 5787 5786 5786 5786 5785 5785 5785 5785
5811 5810 5810 5808 5807 5806 5806 5805 5804 5802 5800 5798 5796 5795 5794 5793 5792 5792 5791 5790 5789 5788 5787 5786 5785 5785 5784 5783 5782 5782 5781 5781 5781 5781 5781 5781 5781 5781 5781 5780 5780 5780 5780 5780 5780 5780 5780 5779 5779
5806 5806 5804 5803 5802 5801 5800 5801 5799 5797 5794 5792 5790 5789 5787 5787 5786 5786 5785 5784 5783 5781 5780 5779 5778 5777 5776 5775 5774 5773 5773 5773 5773 5774 5773 5773 5773 5773 5774 5774 5774 5774 5774 5774 5774 5774 5774 5773 5774
5800 5800 5799 5799 5797 5795 5793 5796 5793 5791 5789 5787 5785 5783 5782 5781 5780 5779 5778 5777 5776 5774 5773 5772 5770 5769 5767 5766 5765 5765 5765 5764 5765 5765 5765 5765 5766 5766 5766 5766 5766 5766 5766 5767 5767 5767 5767 5767 5767